Regional Weather Roundup
Issued by NWS

Home | Current Version | Previous Version | Text Only | Print | Product List | Glossary Off
Versions: 1 2 3 4 5 6 7 8 9 10 11 12 13 14 15 16 17 18 19 20 21 22 23 24 25 26 27 28 29 30 31 32 33 34 35 36 37 38 39 40 41 42 43 44 45 46 47 48 49 50

000
ASUS43 KFSD 010610
RWRSD

WEATHER ROUNDUP FOR SOUTH DAKOTA
NATIONAL WEATHER SERVICE SIOUX FALLS SD
100 AM CDT SUN MAY 01 2016

NOTE: "FAIR" INDICATES FEW OR NO CLOUDS BELOW 12,000 FEET WITH NO
SIGNIFICANT WEATHER AND/OR OBSTRUCTIONS TO VISIBILITY.


SDZ001>005-009-010-012>017-010700-
NORTHWEST AND NORTH CENTRAL SOUTH DAKOTA

CITY           SKY/WX    TMP DP  RH WIND       PRES   REMARKS
BUFFALO          N/A     41  27  57 N8        30.22R
FAITH            N/A     37  28  70 N6        30.24R
MOBRIDGE       CLEAR     47  30  51 NE14      30.20R
$$

SDZ012>016-024>037-041>051-057-063-072>074-010700-
SOUTHWEST AND SOUTH CENTRAL SOUTH DAKOTA

CITY           SKY/WX    TMP DP  RH WIND       PRES   REMARKS
RAPID CTY ARPT CLOUDY    41  32  70 N10       30.24R
PIERRE         CLOUDY    41  34  76 N12       30.16R
CUSTER         CLOUDY    34  24  67 NE12G21   30.19S WCI  25
ELLSWORTH AFB  CLOUDY    43  32  64 N12       30.24R
PHILIP         CLOUDY    41  34  76 N14       30.19R
PINE RIDGE     LGT RAIN  39  37  92 CALM      30.19R
WINNER         LGT RAIN  43  40  89 N6        30.15R
$$

SDZ004>011-016>023-039-040-010700-
NORTHEAST SOUTH DAKOTA

CITY           SKY/WX    TMP DP  RH WIND       PRES   REMARKS
ABERDEEN       CLEAR     41  31  67 N7        30.19S
WATERTOWN      PTCLDY    44  29  55 NE17G24   30.13R
BROOKINGS      CLOUDY    44  32  62 NE10      30.10R
SISSETON         N/A     38  31  76 N3        30.19R
$$

SDZ017-020-022-023-036>040-048>070-010700-
SOUTHEAST SOUTH DAKOTA

CITY           SKY/WX    TMP DP  RH WIND       PRES   REMARKS
SIOUX FALLS    CLOUDY    44  41  89 NE10      30.09R
HURON          PTCLDY    44  36  73 NE9       30.13R
CHAMBERLAIN    CLOUDY    44  43  98 NW6       30.14S
MITCHELL       LGT RAIN  44  43  96 CALM      30.12S
YANKTON        CLOUDY    45  39  81 NE18G25   30.05R
$$

ABBREVIATIONS USED IN REMARKS
   TC - TEMPERATURE IN CELSIUS
  WCI - WIND CHILL INDEX
   HX - HEAT INDEX
  VSB - VISIBILITY





USA.gov is the U.S. government's official web portal to all federal, state and local government web resources and services.